McMurdo%20Station (Antarctica)  www.meteorete.it

situazione meteo Attuale :06:19:28
Temperatura : -9.9
Umidita :68.1 %
Pressione :1002.4 hPa
Vel vento :3.1 Km
Direz. :E
Precip.(mm.):0.0
   

Condizioni Meteo per: McMurdo Station, Antarctica

aggiornamento precedente: 18.01.2017 07:34
prossimo aggiornamento: 18.01.2017 20:00
Latitude: 77.85° S
Longitude: 166.68° E
Altitude: -6 m

hPa
mm °C
    Temperatura Precipitazioni Pressione vento Umidità Nuvoloso Nebbia
       OGGI
07:00   1002.4 hPa 3.1 m/s 68% 0%
10:00   1002.7 hPa 3.1 m/s 65% 0%
13:00   1002.7 hPa 2.6 m/s 65% 19%
16:00   1002.4 hPa 3.1 m/s 63% 45%
19:00   1002.4 hPa 3.3 m/s 62% 27%
22:00   1002.8 hPa 3.1 m/s 62% 8%
       DOMANI
01:00   1003.2 hPa 3.3 m/s 62% 1%
04:00   1003.7 hPa 3.0 m/s 62% 2%
07:00   1004.3 hPa 2.7 m/s 64% 0%
10:00   1005.3 hPa 2.0 m/s 64% 0%
13:00   1005.9 hPa 1.8 m/s 63% 0%
16:00   1006.0 hPa 1.9 m/s 63% 0%
19:00   1005.9 hPa 1.8 m/s 56% 0%
22:00   1005.9 hPa 2.2 m/s 53% 0%
       Sabato 21.01.2017
01:00   1005.8 hPa 2.2 m/s 50% 0%
04:00   1005.0 hPa 2.0 m/s 47% 0%
07:00   1004.7 hPa 1.7 m/s 46% 0%
10:00   1004.2 hPa 1.1 m/s 57% 94%
13:00   1003.0 hPa 1.3 m/s 63% 90%
19:00   1000.1 hPa 2.9 m/s 60% 77%
       Domenica 22.01.2017
01:00   997.5 hPa 4.8 m/s 72% 4%
07:00   993.8 hPa 4.6 m/s 74% 52%
13:00   991.0 hPa 4.2 m/s 77% 0%
19:00   987.7 hPa 4.0 m/s 71% 0%
       Lunedi 23.01.2017
01:00   985.3 hPa 3.8 m/s 73% 75%
07:00   984.2 hPa 3.1 m/s 81% 31%
13:00   985.0 hPa 2.5 m/s 81% 24%
19:00   987.4 hPa 1.6 m/s 79% 40%
       Martedi 24.01.2017
01:00   991.8 hPa 2.4 m/s 77% 9%
07:00   996.0 hPa 3.1 m/s 79% 52%
13:00   999.8 hPa 2.9 m/s 78% 38%
19:00   1002.3 hPa 3.4 m/s 74% 72%
       Mercoledi 25.01.2017
01:00   1004.5 hPa 3.2 m/s 70% 93%
07:00   1005.2 hPa 3.7 m/s 70% 61%
13:00   1005.2 hPa 3.8 m/s 71% 20%
19:00   1004.0 hPa 3.7 m/s 66% 5%
       Giovedi 26.01.2017
01:00   1003.1 hPa 3.7 m/s 68% 69%
07:00   1002.6 hPa 3.9 m/s 66% 33%
13:00   1002.3 hPa 4.1 m/s 65% 6%
19:00   1002.2 hPa 3.9 m/s 65% 93%
       Venerdi 27.01.2017
01:00   1002.8 hPa 4.2 m/s 69% 100%
07:00   1003.7 hPa 4.4 m/s 73% 100%
13:00   1004.5 hPa 5.5 m/s 63% 96%
19:00   1004.5 hPa 5.7 m/s 58% 98%
       Sabato 28.01.2017
01:00   1004.6 hPa 6.5 m/s 64% 100%
07:00 0.5 mm 1005.3 hPa 6.2 m/s 69% 100%
13:00 0.9 mm 1006.0 hPa 6.1 m/s 69% 100%